• In Deutschland
  • Länderverzeichnis
  • Für 7 Tage
  • Wassertemperatur
  • Satellitenkarten
  • Wetterkarte
  • Widgets
  • user-avatar
    Anmelden

    Stündliche Wetter Annaba

    Heute, 29 Mai, Montag

    Zeit Temperatur Niederschläge Wind Luftdruck Luftfeuchtigkeit
    00:00 +19°C° 0 mm 5 m/S 760 mmHg 66%
    01:00 +19°C° 0 mm 4 m/S 760 mmHg 65%
    02:00 +19°C° 0 mm 4 m/S 759 mmHg 65%
    03:00 +18°C° 0 mm 4 m/S 759 mmHg 64%
    04:00 +18°C° 0 mm 4 m/S 759 mmHg 63%
    05:00 +20°C° 0 mm 4 m/S 759 mmHg 59%
    06:00 +21°C° 0 mm 4 m/S 759 mmHg 55%
    07:00 +24°C° 0 mm 3 m/S 759 mmHg 50%
    08:00 +26°C° 0 mm 3 m/S 759 mmHg 44%
    09:00 +28°C° 0 mm 3 m/S 758 mmHg 39%
    10:00 +31°C° 0 mm 3 m/S 758 mmHg 33%
    11:00 +33°C° 0 mm 4 m/S 758 mmHg 31%
    12:00 +34°C° 0 mm 5 m/S 758 mmHg 29%
    13:00 +35°C° 0 mm 5 m/S 758 mmHg 27%
    14:00 +35°C° 0 mm 5 m/S 758 mmHg 27%
    15:00 +35°C° 0 mm 6 m/S 757 mmHg 28%
    16:00 +35°C° 0 mm 6 m/S 757 mmHg 28%
    17:00 +33°C° 0 mm 5 m/S 757 mmHg 34%
    18:00 +30°C° 0 mm 5 m/S 757 mmHg 40%
    19:00 +28°C° 0 mm 4 m/S 757 mmHg 46%
    20:00 +26°C° 0 mm 4 m/S 758 mmHg 54%
    21:00 +23°C° 0 mm 4 m/S 758 mmHg 62%
    22:00 +20°C° 0 mm 4 m/S 759 mmHg 70%
    23:00 +20°C° 0 mm 3 m/S 759 mmHg 69%

    Morgen, 30 Mai, Dienstag

    Zeit Temperatur Niederschläge Wind Luftdruck Luftfeuchtigkeit
    00:00 +20°C° 0 mm 3 m/S 758 mmHg 68%
    01:00 +20°C° 0 mm 3 m/S 758 mmHg 68%
    02:00 +20°C° 0 mm 3 m/S 758 mmHg 70%
    03:00 +19°C° 0 mm 2 m/S 758 mmHg 72%
    04:00 +18°C° 0 mm 2 m/S 758 mmHg 74%
    05:00 +20°C° 0 mm 2 m/S 759 mmHg 71%
    06:00 +21°C° 0 mm 2 m/S 759 mmHg 68%
    07:00 +24°C° 0 mm 2 m/S 759 mmHg 65%
    08:00 +25°C° 0 mm 2 m/S 759 mmHg 60%
    09:00 +27°C° 0 mm 2 m/S 759 mmHg 54%
    10:00 +29°C° 0 mm 2 m/S 760 mmHg 49%
    11:00 +30°C° 0 mm 3 m/S 760 mmHg 48%
    12:00 +30°C° 0 mm 4 m/S 760 mmHg 47%
    13:00 +32°C° 0 mm 4 m/S 760 mmHg 46%
    14:00 +30°C° 0,3 mm 4 m/S 760 mmHg 52%
    15:00 +29°C° 0,3 mm 5 m/S 760 mmHg 57%
    16:00 +28°C° 0,3 mm 5 m/S 760 mmHg 63%
    17:00 +26°C° 0,3 mm 4 m/S 760 mmHg 71%
    18:00 +25°C° 0,3 mm 3 m/S 760 mmHg 79%
    19:00 +23°C° 0,3 mm 2 m/S 761 mmHg 86%
    20:00 +23°C° 0,1 mm 1 m/S 761 mmHg 89%
    21:00 +22°C° 0,1 mm 1 m/S 761 mmHg 91%
    22:00 +22°C° 0,1 mm 1 m/S 761 mmHg 94%
    23:00 +22°C° 0 mm 1 m/S 761 mmHg 93%

    übermorgen, 31 Mai, Mittwoch

    Zeit Temperatur Niederschläge Wind Luftdruck Luftfeuchtigkeit
    00:00 +21°C° 0 mm 1 m/S 761 mmHg 93%
    01:00 +21°C° 0 mm 1 m/S 761 mmHg 93%
    02:00 +21°C° 0 mm 1 m/S 761 mmHg 92%
    03:00 +20°C° 0 mm 1 m/S 761 mmHg 91%
    04:00 +20°C° 0 mm 1 m/S 761 mmHg 90%
    05:00 +21°C° 0 mm 1 m/S 761 mmHg 84%
    06:00 +23°C° 0 mm 1 m/S 761 mmHg 79%
    07:00 +24°C° 0 mm 1 m/S 761 mmHg 73%
    08:00 +26°C° 0 mm 1 m/S 761 mmHg 65%
    09:00 +28°C° 0 mm 2 m/S 761 mmHg 56%
    10:00 +30°C° 0 mm 2 m/S 761 mmHg 48%
    11:00 +31°C° 0 mm 2 m/S 761 mmHg 45%
    12:00 +33°C° 0 mm 3 m/S 761 mmHg 43%
    13:00 +34°C° 0 mm 4 m/S 760 mmHg 40%
    14:00 +34°C° 0,1 mm 4 m/S 760 mmHg 41%
    15:00 +33°C° 0,1 mm 4 m/S 760 mmHg 43%
    16:00 +33°C° 0,1 mm 4 m/S 760 mmHg 45%
    17:00 +30°C° 0,6 mm 3 m/S 760 mmHg 53%
    18:00 +28°C° 0,6 mm 3 m/S 760 mmHg 62%
    19:00 +26°C° 0,6 mm 2 m/S 760 mmHg 70%
    20:00 +24°C° 1,1 mm 2 m/S 761 mmHg 75%
    21:00 +23°C° 1,1 mm 2 m/S 761 mmHg 80%
    22:00 +21°C° 1,1 mm 3 m/S 762 mmHg 84%
    23:00 +21°C° 0,3 mm 2 m/S 762 mmHg 83%

    1 Juni, Donnerstag

    Zeit Temperatur Niederschläge Wind Luftdruck Luftfeuchtigkeit
    00:00 +21°C° 0,3 mm 2 m/S 761 mmHg 82%
    01:00 +22°C° 0,3 mm 1 m/S 761 mmHg 81%
    02:00 +22°C° 0,1 mm 1 m/S 761 mmHg 80%
    03:00 +22°C° 0,1 mm 1 m/S 761 mmHg 80%
    04:00 +22°C° 0,1 mm 1 m/S 760 mmHg 80%
    05:00 +23°C° 0,3 mm 1 m/S 761 mmHg 75%
    06:00 +24°C° 0,3 mm 1 m/S 761 mmHg 71%
    07:00 +25°C° 0,3 mm 1 m/S 761 mmHg 66%
    08:00 +28°C° 0 mm 1 m/S 761 mmHg 58%
    09:00 +30°C° 0 mm 1 m/S 761 mmHg 50%
    10:00 +32°C° 0 mm 1 m/S 761 mmHg 43%
    11:00 +34°C° 0 mm 2 m/S 761 mmHg 40%
    12:00 +35°C° 0 mm 3 m/S 761 mmHg 37%
    13:00 +36°C° 0 mm 4 m/S 761 mmHg 35%
    14:00 +35°C° 0,1 mm 4 m/S 760 mmHg 37%
    15:00 +34°C° 0,1 mm 4 m/S 760 mmHg 39%
    16:00 +34°C° 0,1 mm 5 m/S 760 mmHg 42%
    17:00 +32°C° 0,4 mm 4 m/S 760 mmHg 49%
    18:00 +29°C° 0,4 mm 3 m/S 760 mmHg 57%
    19:00 +27°C° 0,4 mm 2 m/S 760 mmHg 65%
    20:00 +26°C° 0,6 mm 1 m/S 761 mmHg 71%
    21:00 +25°C° 0,6 mm 1 m/S 761 mmHg 76%
    22:00 +24°C° 0,6 mm 1 m/S 762 mmHg 81%
    23:00 +24°C° 0,8 mm 1 m/S 761 mmHg 81%

    2 Juni, Freitag

    Zeit Temperatur Niederschläge Wind Luftdruck Luftfeuchtigkeit
    00:00 +23°C° 0,8 mm 2 m/S 761 mmHg 81%
    01:00 +23°C° 0,8 mm 2 m/S 761 mmHg 81%
    02:00 +23°C° 0,3 mm 1 m/S 761 mmHg 81%
    03:00 +23°C° 0,3 mm 1 m/S 760 mmHg 81%
    04:00 +22°C° 0,3 mm 1 m/S 760 mmHg 80%
    05:00 +24°C° 0,1 mm 1 m/S 760 mmHg 77%
    06:00 +25°C° 0,1 mm 1 m/S 760 mmHg 73%
    07:00 +26°C° 0,1 mm 1 m/S 761 mmHg 69%
    08:00 +28°C° 0 mm 1 m/S 761 mmHg 62%
    09:00 +30°C° 0 mm 1 m/S 761 mmHg 55%
    10:00 +32°C° 0 mm 1 m/S 761 mmHg 48%
    11:00 +34°C° 0 mm 2 m/S 760 mmHg 45%
    12:00 +34°C° 0 mm 3 m/S 760 mmHg 42%
    13:00 +35°C° 0 mm 3 m/S 759 mmHg 40%
    14:00 +35°C° 0 mm 3 m/S 759 mmHg 40%
    15:00 +35°C° 0 mm 4 m/S 759 mmHg 41%
    16:00 +34°C° 0 mm 4 m/S 759 mmHg 42%
    17:00 +33°C° 0 mm 3 m/S 759 mmHg 47%
    18:00 +30°C° 0 mm 3 m/S 759 mmHg 52%
    19:00 +29°C° 0 mm 2 m/S 759 mmHg 58%
    20:00 +28°C° 0,1 mm 2 m/S 759 mmHg 61%
    21:00 +27°C° 0,1 mm 2 m/S 759 mmHg 64%
    22:00 +25°C° 0,1 mm 2 m/S 760 mmHg 67%
    23:00 +25°C° 0 mm 2 m/S 759 mmHg 69%

    3 Juni, Samstag

    Zeit Temperatur Niederschläge Wind Luftdruck Luftfeuchtigkeit
    00:00 +24°C° 0 mm 2 m/S 759 mmHg 70%
    01:00 +24°C° 0 mm 2 m/S 758 mmHg 71%
    02:00 +24°C° 0 mm 2 m/S 758 mmHg 70%
    03:00 +24°C° 0 mm 2 m/S 758 mmHg 70%
    04:00 +24°C° 0 mm 2 m/S 758 mmHg 69%
    05:00 +25°C° 0 mm 2 m/S 758 mmHg 66%
    06:00 +27°C° 0 mm 2 m/S 758 mmHg 62%
    07:00 +28°C° 0 mm 2 m/S 758 mmHg 58%
    08:00 +30°C° 0 mm 2 m/S 758 mmHg 52%
    09:00 +32°C° 0 mm 2 m/S 758 mmHg 45%
    10:00 +35°C° 0 mm 2 m/S 758 mmHg 38%
    11:00 +36°C° 0 mm 3 m/S 758 mmHg 36%
    12:00 +37°C° 0 mm 3 m/S 757 mmHg 34%
    13:00 +38°C° 0 mm 3 m/S 757 mmHg 31%
    14:00 +37°C° 0 mm 3 m/S 757 mmHg 32%
    15:00 +37°C° 0 mm 4 m/S 757 mmHg 34%
    16:00 +36°C° 0 mm 4 m/S 757 mmHg 35%
    17:00 +35°C° 0,1 mm 3 m/S 757 mmHg 41%
    18:00 +33°C° 0,1 mm 3 m/S 757 mmHg 46%
    19:00 +30°C° 0,1 mm 2 m/S 757 mmHg 51%
    20:00 +28°C° 1 mm 3 m/S 758 mmHg 61%
    21:00 +26°C° 1 mm 3 m/S 758 mmHg 71%
    22:00 +25°C° 1 mm 4 m/S 759 mmHg 80%
    23:00 +25°C° 1,6 mm 4 m/S 759 mmHg 83%
    Mehr zeigen